Current weather by "City, St" or "zip code"  
 

Current Conditions: Columbia - Jim Hamilton L.B. Owens Airport, SC

Fair


61.0 F

Last Updated on Jan 31 2023, 8:53 pm EST
Humidity: 93%
Wind Speed: N 0.0 mph
Barometer 30.12 in
Dewpoint: 59.0 F
Visibility: 10.00 mi
Precip: --
Heat Index: NA
Wind Chill: NA
Current conditions at:

Columbia - Jim Hamilton L.B. Owens Airport, SC (KCUB)

Lat: 33.97083 Lon: 80.99444

Local Radar Image active severe weather and emergency alerts image image weather storm and storm spotter reports image weather observation monitoring service image
Local
Radar
Active
Alerts
Storm Reports Obs
Monitoring

Sign-up For Email & Text Message Weather Alert Notification Services



Advertise Here

Observation History for Columbia - Jim Hamilton L.B. Owens Airport, SC


Time Wind
(mph)
Vis
(mi)
Weather Precip (in) Temperature (F) Relative
Humidity
Wind
Chill
(F)
Heat
Index
(F)
Pressure
Air Dwpt altimeter
(in)
sea level
(mb)
Rmks
8:53 pm EST N 0.0 10.00 Fair -- 61.0 59.0 93% NA NA 30.12 1019.9
7:53 pm EST SW 3.5 10.00 A Few Clouds -- 62.0 59.0 90% NA NA 30.13 1020.2
6:53 pm EST SW 3.5 10.00 Mostly Cloudy -- 64.0 60.1 87% NA NA 30.13 1020.3
5:53 pm EST S 5.8 10.00 Mostly Cloudy -- 65.0 60.1 84% NA NA 30.11 1019.5
3:53 pm EST SW 6.9 10.00 Overcast -- 67.0 60.1 79% NA NA 30.10 1019.2
11:53 am EST SW 5.8 10.00 Overcast -- 61.0 57.0 87% 61 NA 30.20 1022.5
10:53 am EST S 4.6 10.00 Overcast -- 59.0 55.9 90% 59 NA 30.20 1022.5
9:53 am EST S 4.6 10.00 Overcast -- 56.0 55.9 100% 55 NA 30.20 1022.6
3:53 am EST N 0.0 2.00 Fog/Mist -- 56.0 55.0 97% NA NA 30.16 1021.3
2:53 am EST N 0.0 7.00 Overcast -- 56.0 55.0 97% NA NA 30.17 1021.5
12:53 am EST N 0.0 10.00 Overcast -- 55.0 54.0 96% NA NA 30.18 1021.7
11:53 pm EST N 0.0 10.00 Overcast -- 56.0 54.0 93% NA NA 30.19 1022.1
10:53 pm EST NW 3.5 10.00 Overcast -- 55.0 54.0 96% NA NA 30.21 1023.0

Regional Weather Observation


Newberry County Airport, SC (KEOE)

Partly Cloudy
61.0 F

Columbia - Jim Hamilton L.B. Owens Airport, SC (KCUB)

Fair
61.0 F

Columbia, Columbia Metropolitan Airport, SC (KCAE)

Partly Cloudy
61.0 F

Chester Catawba Regional Airport, SC (KDCM)

Overcast
55.0 F

Camden Woodward Field, SC (KCDN)

NULL
59.0 F

Laurens County Airport, SC (KLUX)

Overcast
61.0 F

Advertise Here


Advertise Here